Regional Weather Roundup
Issued by NWS

Home | Current Version | Previous Version | Graphics & Text | Print | Product List | Glossary On
Versions: 1 2 3 4 5 6 7 8 9 10 11 12 13 14 15 16 17 18 19 20 21 22 23 24 25 26 27 28 29 30 31 32 33 34 35 36 37 38 39 40 41 42 43 44 45 46 47 48 49 50
000
ASUS43 KFSD 051510
RWRSD

WEATHER ROUNDUP FOR SOUTH DAKOTA
NATIONAL WEATHER SERVICE SIOUX FALLS SD
1000 AM CDT SUN JUL 05 2015

NOTE: "FAIR" INDICATES FEW OR NO CLOUDS BELOW 12,000 FEET WITH NO
SIGNIFICANT WEATHER AND/OR OBSTRUCTIONS TO VISIBILITY.


SDZ001>005-009-010-012>017-051600-
NORTHWEST AND NORTH CENTRAL SOUTH DAKOTA

CITY           SKY/WX    TMP DP  RH WIND       PRES   REMARKS
BUFFALO          N/A     67  60  78 N24G37    29.80R
FAITH            N/A     67  62  84 N20       29.83R
MOBRIDGE       PTSUNNY   79  71  76 VRB6      29.76R
$$

SDZ012>016-024>037-041>051-057-063-072>074-051600-
SOUTHWEST AND SOUTH CENTRAL SOUTH DAKOTA

CITY           SKY/WX    TMP DP  RH WIND       PRES   REMARKS
RAPID CTY ARPT SUNNY     78  66  66 NW13G21   29.80R
PIERRE         SUNNY     77  69  76 SE16      29.72S
CUSTER         SUNNY     80  56  43 W7        29.95S
ELLSWORTH AFB  PTSUNNY   77  63  60 N18G29    29.81R
PHILIP         SUNNY     81  66  60 SE7       29.72S
PINE RIDGE     SUNNY     80  66  62 S8        29.79S
SPEARFISH      FAIR      73  59  60 CALM      29.91S
WINNER         FAIR      82  66  58 SE16G22   29.78S
$$

SDZ004>011-016>023-039-040-051600-
NORTHEAST SOUTH DAKOTA

CITY           SKY/WX    TMP DP  RH WIND       PRES   REMARKS
ABERDEEN       MOSUNNY   77  67  71 MISG      29.75R
WATERTOWN      MOSUNNY   77  65  66 S15G24    29.79F
BROOKINGS      SUNNY     73  66  78 S13G18    29.84F
SISSETON         N/A     80  66  62 S20       29.73F
$$

SDZ017-020-022-023-036>040-048>070-051600-
SOUTHEAST SOUTH DAKOTA

CITY           SKY/WX    TMP DP  RH WIND       PRES   REMARKS
SIOUX FALLS    MOSUNNY   73  67  81 SE13      29.85F
HURON          SUNNY     76  66  71 S21G33    29.75F
CHAMBERLAIN    SUNNY     77  68  75 SE18G24   29.78F
MITCHELL       SUNNY     79  68  69 S15G24    29.80F
YANKTON        MOSUNNY   79  64  61 S18G28    29.83F
$$

ABBREVIATIONS USED IN REMARKS
   TC - TEMPERATURE IN CELSIUS
  WCI - WIND CHILL INDEX
   HX - HEAT INDEX
  VSB - VISIBILITY




USA.gov is the U.S. government's official web portal to all federal, state and local government web resources and services.